Weather in Puchezh

Russia / Ivanovo Oblast     56°58′55″N   43°10′06″E
temp.,
°C
wind,
m/s
gust,
m/s
humid.,
%
clouds,
%
prec.,
mm/h
press.,
hPa
HPBL,
m
25 february, thu
thu2500:00−17s6993100 0.0 1030320
03:00−17s61096100 0.4 1027440
06:00−16s81295100 1.6 1021491
09:00−15s71295100 3.8 1017531
12:00−13sse6994100 2.3 1014481
15:00−11sse5693100 2.9 1012361
18:00−11ese359495 0.3 1012108
21:00−12se239594 0.3 101240
26 february, fri
fri2600:00−13ese339599 0.1 101274
03:00−13ese3595100 0.3 101395
06:00−13se4695100 0.2 1011161
09:00−11se589499 0.6 1009228
12:00−8se71195100 1.2 1005282
15:00−6se71295100 4.4 1001316
18:00−4sse5696100 5.8 997143
21:000w6109496 7.0 996184
27 february, sat
sat2700:000w5998100 0.3 994362
03:000wsw4799100 1.5 994234
06:000w5898100 1.8 994311
09:00−3nnw5697100 2.4 995261
12:00−8nne6894100 0.8 998403
15:00−9nne6992100 1.1 1001553
18:00−11nne6119297 0.2 1004372
21:00−12n599196 0.3 1008318
28 february, sun
sun2800:00−16n699596 0.0 1009174
03:00−18n589561 0.0 1012137
06:00−20n57964 0.0 1013113
09:00−18nnw47930 0.0 1014198
12:00−15nnw579140 0.0 1015323
15:00−12nnw479053 0.0 1016397
18:00−12nnw459493 0.0 101880
21:00−14n449585 0.0 102051
1 march, mon
mon100:00−16n34963 0.0 102223
03:00−17nnw33962 0.0 102321
06:00−17nnw23970 0.0 102520
09:00−15wnw119635 0.0 102527
12:00−10sw229381 0.0 1025134
15:00−6sw459385 0.0 1023150
18:00−6sw5994100 0.0 1021161
21:00−3wsw61097100 0.3 1017361